Skip to content
Christman Field Latest Observations
Select Units
Date Time
MST
Temp
°F
RH
%
DewPt
°F
Wind
mph
Dir
°
Gust
mph
Dir
°
Press
in Hg
Solar
W/m^2
Prec
in
2022-10-03 06:35 47.2 88.3 44.0 4.1 279 4.9 278 24.998 24.3 0.00
2022-10-03 06:30 47.2 87.9 43.8 2.6 259 2.9 248 24.996 15.5 0.00
2022-10-03 06:25 47.1 87.7 43.7 2.2 251 3.3 262 24.996 10.4 0.00
2022-10-03 06:20 47.5 87.6 44.0 2.2 262 3.3 259 24.996 7.0 0.00
2022-10-03 06:15 47.8 87.4 44.2 1.4 268 1.8 278 24.995 4.8 0.00
2022-10-03 06:10 47.9 87.0 44.3 1.1 284 1.4 280 24.995 3.2 0.00
2022-10-03 06:05 48.1 86.7 44.3 1.1 256 1.8 260 24.995 2.6 0.00
2022-10-03 06:00 48.0 87.8 44.5 1.1 296 1.3 296 24.995 1.6 0.00
2022-10-03 05:55 47.8 88.1 44.5 1.6 334 1.9 16 24.993 0.8 0.00
2022-10-03 05:50 47.8 88.3 44.5 0.8 17 1.6 326 24.992 0.4 0.00
2022-10-03 05:45 47.9 88.1 44.5 2.5 326 3.1 324 24.990 0.2 0.00
2022-10-03 05:40 48.1 87.8 44.6 2.6 321 2.9 322 24.989 0.0 0.00
2022-10-03 05:35 48.2 87.3 44.6 3.4 351 3.8 335 24.988 0.0 0.00
2022-10-03 05:30 48.1 87.5 44.5 4.5 331 5.7 323 24.988 0.0 0.00
2022-10-03 05:25 47.9 88.0 44.5 5.2 324 6.0 315 24.988 0.0 0.00
2022-10-03 05:20 47.8 88.4 44.5 3.7 317 4.1 325 24.985 0.0 0.00
2022-10-03 05:15 47.7 89.0 44.6 4.4 321 5.0 307 24.985 0.0 0.00
2022-10-03 05:10 47.4 89.2 44.4 5.8 308 6.6 320 24.985 0.0 0.00
2022-10-03 05:05 47.1 88.9 44.0 7.1 318 8.8 331 24.982 0.0 0.00
2022-10-03 05:00 47.0 88.3 43.8 8.2 331 9.0 338 24.981 0.0 0.00
2022-10-03 04:55 47.4 87.4 43.8 4.5 333 7.5 331 24.978 0.0 0.00
2022-10-03 04:50 47.4 86.9 43.7 1.3 273 2.5 126 24.974 0.0 0.00
2022-10-03 04:45 47.1 88.4 43.9 1.4 128 2.7 129 24.973 0.0 0.00
2022-10-03 04:40 46.9 87.5 43.4 1.3 82 1.9 52 24.976 0.0 0.00
2022-10-03 04:35 46.8 86.8 43.1 0.2 236 1.1 236 24.977 0.0 0.00
2022-10-03 04:30 47.0 86.6 43.2 1.5 236 1.6 236 24.977 0.0 0.00
2022-10-03 04:25 46.4 86.3 42.6 0.4 236 1.5 236 24.976 0.0 0.00
2022-10-03 04:20 46.2 85.9 42.2 0.7 273 1.4 280 24.973 0.0 0.00
2022-10-03 04:15 46.0 86.5 42.2 1.7 298 2.5 298 24.972 0.0 0.00
2022-10-03 04:10 45.8 86.7 42.1 4.6 298 5.9 285 24.971 0.0 0.00
Date Time
MST
Temp
°C
RH
%
DewPt
°C
Wind
m/s
Dir
°
Gust
m/s
Dir
°
Press
hPa
Solar
W/m^2
Prec
mm
2022-10-03 06:35 8.5 88.3 6.6 1.8 279 2.2 278 846.52 24.3 0.00
2022-10-03 06:30 8.4 87.9 6.5 1.1 259 1.3 248 846.46 15.5 0.00
2022-10-03 06:25 8.4 87.7 6.5 1.0 251 1.5 262 846.48 10.4 0.00
2022-10-03 06:20 8.6 87.6 6.6 1.0 262 1.5 259 846.46 7.0 0.00
2022-10-03 06:15 8.8 87.4 6.8 0.6 268 0.8 278 846.44 4.8 0.00
2022-10-03 06:10 8.8 87.0 6.8 0.5 284 0.6 280 846.44 3.2 0.00
2022-10-03 06:05 8.9 86.7 6.8 0.5 256 0.8 260 846.43 2.6 0.00
2022-10-03 06:00 8.9 87.8 7.0 0.5 296 0.6 296 846.43 1.6 0.00
2022-10-03 05:55 8.8 88.1 6.9 0.7 334 0.9 16 846.34 0.8 0.00
2022-10-03 05:50 8.8 88.3 7.0 0.3 17 0.7 326 846.31 0.4 0.00
2022-10-03 05:45 8.8 88.1 7.0 1.1 326 1.4 324 846.25 0.2 0.00
2022-10-03 05:40 8.9 87.8 7.0 1.2 321 1.3 322 846.24 0.0 0.00
2022-10-03 05:35 9.0 87.3 7.0 1.5 351 1.7 335 846.20 0.0 0.00
2022-10-03 05:30 8.9 87.5 7.0 2.0 331 2.6 323 846.20 0.0 0.00
2022-10-03 05:25 8.8 88.0 7.0 2.3 324 2.7 315 846.18 0.0 0.00
2022-10-03 05:20 8.8 88.4 7.0 1.6 317 1.8 325 846.08 0.0 0.00
2022-10-03 05:15 8.7 89.0 7.0 1.9 321 2.2 307 846.08 0.0 0.00
2022-10-03 05:10 8.6 89.2 6.9 2.6 308 2.9 320 846.09 0.0 0.00
2022-10-03 05:05 8.4 88.9 6.7 3.2 318 3.9 331 846.00 0.0 0.00
2022-10-03 05:00 8.4 88.3 6.5 3.7 331 4.0 338 845.96 0.0 0.00
2022-10-03 04:55 8.6 87.4 6.6 2.0 333 3.4 331 845.86 0.0 0.00
2022-10-03 04:50 8.6 86.9 6.5 0.6 273 1.1 126 845.72 0.0 0.00
2022-10-03 04:45 8.4 88.4 6.6 0.6 128 1.2 129 845.69 0.0 0.00
2022-10-03 04:40 8.3 87.5 6.3 0.6 82 0.8 52 845.79 0.0 0.00
2022-10-03 04:35 8.2 86.8 6.2 0.1 236 0.5 236 845.83 0.0 0.00
2022-10-03 04:30 8.3 86.6 6.2 0.7 236 0.7 236 845.82 0.0 0.00
2022-10-03 04:25 8.0 86.3 5.9 0.2 236 0.7 236 845.79 0.0 0.00
2022-10-03 04:20 7.9 85.9 5.7 0.3 273 0.6 280 845.69 0.0 0.00
2022-10-03 04:15 7.8 86.5 5.6 0.8 298 1.1 298 845.65 0.0 0.00
2022-10-03 04:10 7.7 86.7 5.6 2.1 298 2.6 285 845.63 0.0 0.00
CIRA

Cooperative Institute for Research in the Atmosphere

CIRA Software Engineering Group (CSEG)

The CIRA Software Engineering Group (CSEG) began as an informal, enthusiastic grassroots group in April of 2014. Since then, it has grown into an active and cross-cutting group with representation from teams at CIRA-Fort Collins, CIRA-Boulder, NOAA MDL, the National Parks Service (NPS), the CSU Department of Atmospheric Science, the CSU Department of Soil and Crop Sciences, and the CSU Center for the Environmental Management of Military Lands (CEMML). CSEG supports the Vision for CIRA by exploring and testing emerging software technologies from outside the atmospheric sciences and incorporating them into our work to support the efficiency and excellence of CIRA’s research themes.

CSEG meets monthly to discuss how new tools and techniques can inform and improve CIRA’s data management, computing, and scientific efforts. CSEG further benefits CIRA’s projects by providing opportunities to discuss common software issues, to collect feedback on ideas, and to brainstorm alternative solutions, as well as assisting in planning future computing infrastructure and collaboratively developing software for general use across CIRA teams. CSEG also offers trainings for software tools that benefit the CIRA community (e.g., CSEG has offered Git training since 2016 and manages a local-network Git repository server).

CSEG is open to all and you need not characterize yourself as a software engineer to participate — all tech junkies are welcome! If you are interested in joining this innovative and vibrant community, please contact cseg@colostate.edu for more information.